This demonstration page uses our WeatherBlox Daily Observations layout. Learn more.

Left ArrowRight Arrow

39.51506, -84.39828

Hourly Observations for June 2, 2020

Temp ( °F °C ) Dew Point ( °F °C ) Humidity (%) Winds ( mph kmh ) Pressure ( in mb ) Visibility ( mi km ) Precip ( " mm )
12:15 am 00:15 Mostly Cloudy 62 16.9 55 12.5 75 75 Calm 30.13 1020 10 16.0934 0 0
12:35 am 00:35 Cloudy 62 16.6 58 14.2 86 86 Calm 30.13 1020 10 16.0934 0 0
12:55 am 00:55 Clear 62 16.4 59 14.8 90 90 Calm 30.12 1020 10 16.0934 0 0
1:15 am 01:15 Clear 62 16.6 57 14 85 85 Calm 30.11 1020 10 16.0934 0 0
1:35 am 01:35 Clear 62 16.5 56 13.2 81 81 Calm 30.11 1020 10 16.0934 0 0
1:55 am 01:55 Clear 61 16.1 57 13.7 86 86 Calm 30.11 1020 10 16.0934 0 0
2:15 am 02:15 Clear 60 15.3 56 13.1 87 87 Calm 30.11 1019 10 16.0934 0 0
2:35 am 02:35 Clear 58 14.4 56 13.4 94 94 Calm 30.1 1019 10 16.0934 0 0
2:55 am 02:55 Clear 59 14.8 54 12.4 86 86 Calm 30.11 1020 10 16.0934 0 0
3:15 am 03:15 Clear 58 14.4 55 13 91 91 Calm 30.11 1020 10 16.0934 0 0
3:35 am 03:35 Clear 57 13.9 54 12.4 91 91 Calm 30.1 1019 10 16.0934 0 0
3:55 am 03:55 Clear 58 14.4 54 12.1 86 86 Calm 30.1 1019 10 16.0934 0 0
4:15 am 04:15 Clear 56 13.6 53 11.8 89 89 Calm 30.1 1019 10 16.0934 0 0
4:35 am 04:35 Clear 56 13.5 54 12.2 92 92 Calm 30.1 1019 10 16.0934 0 0
4:55 am 04:55 Clear 57 13.7 54 12.3 91 91 Calm 30.1 1019 10 16.0934 0 0
5:15 am 05:15 Clear 57 13.7 55 12.5 93 93 Calm 30.1 1019 10 16.0934 0 0
5:35 am 05:35 Clear 56 13.5 54 12 91 91 Calm 30.09 1019 10 16.0934 0 0
5:55 am 05:55 Clear 56 13.4 55 12.7 96 96 SW 5 7 30.09 1019 10 16.0934 0 0
6:15 am 06:15 Sunny 55 12.8 54 12 95 95 WSW 3 6 30.09 1019 10 16.0934 0 0
6:35 am 06:35 Sunny 56 13.5 54 12.3 93 93 WSW 6 9 30.09 1019 10 16.0934 0 0
6:55 am 06:55 Sunny 58 14.7 55 12.6 87 87 SW 6 9 30.08 1019 10 16.0934 0 0
7:15 am 07:15 Sunny 61 15.9 54 12.1 78 78 WSW 7 11 30.07 1018 10 16.0934 0 0
7:35 am 07:35 Sunny 63 17.1 52 11.2 68 68 Calm 30.08 1019 10 16.0934 0 0
7:55 am 07:55 Sunny 65 18.2 53 11.6 66 66 WSW 6 9 30.09 1019 10 16.0934 0 0
8:15 am 08:15 Sunny 67 19.2 53 11.4 61 61 WSW 8 13 30.08 1019 10 16.0934 0 0
8:35 am 08:35 Sunny 68 20 53 11.5 58 58 WSW 8 13 30.07 1018 10 16.0934 0 0
8:55 am 08:55 Sunny 69 20.8 53 11.5 55 55 WSW 9 15 30.07 1018 10 16.0934 0 0
9:15 am 09:15 Sunny 71 21.5 51 10.5 50 50 WSW 13 20 30.07 1018 10 16.0934 0 0
9:35 am 09:35 Sunny 71 21.9 53 11.4 51 51 W 9 15 30.07 1018 10 16.0934 0 0
9:55 am 09:55 Sunny 73 22.7 53 11.7 50 50 W 9 15 30.06 1018 10 16.0934 0 0
10:15 am 10:15 Sunny 75 23.7 54 12.1 48 48 WSW 12 19 30.06 1018 10 16.0934 0 0
10:35 am 10:35 Sunny 76 24.4 55 12.6 48 48 WSW 8 13 30.04 1017 10 16.0934 0 0
10:55 am 10:55 Sunny 77 25.1 56 13.6 49 49 WSW 9 15 30.04 1017 10 16.0934 0 0
11:15 am 11:15 Sunny 79 26 54 12 42 42 W 15 24 30.03 1017 10 16.0934 0 0
11:35 am 11:35 Sunny 80 26.5 54 12.2 41 41 W 16 26 30.02 1017 10 16.0934 0 0
11:55 am 11:55 Sunny 80 26.8 54 12.2 40 40 W 16 26 30.02 1017 10 16.0934 0 0
12:15 pm 12:15 Sunny 81 27.4 57 13.9 44 44 WSW 13 20 30.01 1016 10 16.0934 0 0
12:35 pm 12:35 Sunny 82 27.5 56 13.3 42 42 WSW 18 30 30 1016 10 16.0934 0 0
12:55 pm 12:55 Sunny 82 27.9 58 14.4 44 44 W 13 20 29.99 1015 10 16.0934 0 0
1:15 pm 13:15 Sunny 83 28.2 58 14.7 44 44 WSW 16 26 29.99 1015 10 16.0934 0 0
1:35 pm 13:35 Sunny 84 28.7 60 15.8 46 46 WSW 17 28 29.97 1015 10 16.0934 0 0
1:55 pm 13:55 Sunny 84 28.9 60 15.4 44 44 WSW 16 26 29.97 1015 10 16.0934 0 0
2:15 pm 14:15 Sunny 84 29 60 15.8 45 45 WSW 17 28 29.96 1015 10 16.0934 0 0
2:35 pm 14:35 Sunny 85 29.2 59 15.1 42 42 W 13 20 29.96 1015 10 16.0934 0 0
2:55 pm 14:55 Sunny 85 29.6 61 16.3 45 45 WSW 13 20 29.95 1014 10 16.0934 0 0
3:15 pm 15:15 Sunny 85 29.6 59 15.1 41 41 WSW 16 26 29.94 1014 10 16.0934 0 0
3:35 pm 15:35 Sunny 86 29.9 60 15.3 41 41 WSW 15 24 29.94 1014 10 16.0934 0 0
3:55 pm 15:55 Sunny 86 30.2 59 14.9 39 39 W 15 24 29.93 1014 10 16.0934 0 0
4:15 pm 16:15 Sunny 87 30.3 58 14.4 38 38 W 16 26 29.92 1013 10 16.0934 0 0
4:35 pm 16:35 Sunny 87 30.4 60 15.3 40 40 WSW 17 28 29.92 1013 10 16.0934 0 0
4:55 pm 16:55 Sunny 87 30.4 59 14.8 39 39 WSW 15 24 29.91 1013 10 16.0934 0 0
5:15 pm 17:15 Sunny 87 30.4 58 14.6 38 38 WSW 16 26 29.91 1013 10 16.0934 0 0
5:35 pm 17:35 Sunny 86 30 57 14 38 38 W 16 26 29.91 1013 10 16.0934 0 0
5:55 pm 17:55 Sunny 86 30 57 14 38 38 WSW 14 22 29.91 1013 10 16.0934 0 0
6:15 pm 18:15 Sunny 86 30.2 58 14.2 38 38 W 14 22 29.9 1013 10 16.0934 0 0
6:35 pm 18:35 Sunny 86 30 57 14 38 38 W 15 24 29.9 1013 10 16.0934 0 0
6:55 pm 18:55 Sunny 86 29.8 58 14.6 40 40 WSW 17 28 29.9 1013 10 16.0934 0 0
7:15 pm 19:15 Sunny 85 29.5 58 14.2 39 39 WSW 14 22 29.89 1012 10 16.0934 0 0
7:35 pm 19:35 Sunny 84 28.9 58 14.6 42 42 WSW 9 15 29.9 1013 10 16.0934 0 0
7:55 pm 19:55 Sunny 83 28.6 58 14.2 41 41 W 12 19 29.91 1013 10 16.0934 0 0
8:15 pm 20:15 Sunny 82 27.7 58 14.2 44 44 WSW 12 19 29.91 1013 10 16.0934 0 0
8:35 pm 20:35 Sunny 80 26.6 58 14.3 47 47 WSW 10 17 29.91 1013 10 16.0934 0 0
8:55 pm 20:55 Sunny 80 26.5 57 14 46 46 W 10 17 29.91 1013 10 16.0934 0 0
9:15 pm 21:15 Clear 78 25.5 57 14.1 49 49 WSW 9 15 29.91 1013 10 16.0934 0 0
9:35 pm 21:35 Clear 77 24.9 57 14 51 51 WSW 8 13 29.91 1013 10 16.0934 0 0
9:55 pm 21:55 Clear 74 23.6 58 14.2 56 56 WSW 7 11 29.92 1013 10 16.0934 0 0
10:15 pm 22:15 Clear 73 22.8 58 14.5 60 60 WSW 8 13 29.92 1013 10 16.0934 0 0
10:35 pm 22:35 Clear 74 23.1 58 14.3 58 58 WSW 9 15 29.92 1013 10 16.0934 0 0
10:55 pm 22:55 Clear 71 21.9 58 14.4 63 63 WSW 9 15 29.92 1013 10 16.0934 0 0
11:15 pm 23:15 Clear 71 21.4 58 14.4 65 65 WSW 9 15 29.93 1014 10 16.0934 0 0
11:35 pm 23:35 Clear 70 20.9 58 14.4 67 67 WSW 7 11 29.93 1014 10 16.0934 0 0
11:55 pm 23:55 Clear 70 21 58 14.4 66 66 WSW 6 9 29.94 1014 10 16.0934 0 0

Powered by AerisWeather